sat.trackr.live / text

‹ back to catalog

STARLINK-5484

NORAD 55628 · 2023-021A

PAYLOAD ACTIVE UNKNOWN

§ Identity

Operator
Country
US
Launch date
2023-02-17
Launch site
AFWTR
Launch vehicle
Mass (kg)
RCS (m²)

Purposes: comms

External: N2YO · Heavens-Above · Gunter

§ Orbital elements

Epoch: 2026-09-20T22:00:03.000096Z

Period
95.64 min
Inclination
70.0014°
Eccentricity
0.0005353
Mean motion
15.05671320 rev/d
Perigee alt
545.7 km
Apogee alt
553.2 km
Semi-major
6,927.6 km
B*
5.1933e-3
RAAN
72.2407°
Arg perigee
283.9738°
Mean anomaly
341.0044°
Rev number
556

§ Raw data

STARLINK-54841 55628U 23021A   26263.91670139  .00075911  00000+0  51933-2 0  99942 55628  70.0014  72.2407 0005353 283.9738 341.0044 15.05671320  5560

JSON: /api/v1/satellites/55628 · /tle

For live sub-satellite position, see the globe view (requires WebGL).

§ Visibility from observer

Set your observer location to see the next 7 days of passes ≥ 10°. The values pass through the URL so the page stays shareable.

No JS? Fill the form by hand. The geolocation button needs JavaScript.